Latest Coastal Weather Observations for Lord Howe Island

IDN60701

Issued at 10:31 pm EDT Saturday 3 December 2016 (issued every 10 minutes, with the page automatically refreshed every 10 minutes)

About coastal observations | Map of coastal stations | Coastal observations for NSW | Marine services | Other Formats
Station Details ID: 200839 Name: LORD HOWE ISLAND AERO Lat: -31.54 Lon: 159.08 Height: 5.0 m
Data from the previous 72 hours. | See also: Recent months at Lord Howe Island
Date/Time
EDT
Temp
°C
Wind Pressure Rain since
9am
mm
Weather Cloud Vis
km
Sea
Height
m
Swell
Dir  Spd
kts
Gust
kts
hPa Trend Height
m
Period
s
Dir
03/10:30pm 22.3 NNE 6 11 1018.2 - 0.0 - Partly cloudy 10 - - - -
03/10:00pm 22.4 N 7 13 1018.0 - 0.0 - Partly cloudy 10 - - - -
03/09:30pm 22.2 NNE 6 10 1017.8 - 0.0 - - 10 - - - -
03/09:00pm 22.2 NNE 6 10 1017.7 - 0.0 - - 10 - - - -
03/08:30pm 22.2 NNE 7 10 1017.4 - 0.0 - - 10 - - - -
03/08:00pm 22.4 N 6 11 1017.3 - 0.0 - Partly cloudy 10 - - - -
03/07:30pm 22.7 NNE 6 8 1017.0 - 0.0 - Cloudy 10 - - - -
03/07:00pm 22.8 NNE 6 9 1016.7 - 0.0 - Partly cloudy 10 - - - -
03/06:30pm 23.0 NE 5 8 1016.4 - 0.0 - Partly cloudy 10 - - - -
03/06:00pm 23.6 N 5 9 1016.3 - 0.0 - - 10 - - - -
03/05:30pm 23.7 NNW 7 11 1016.3 - 0.0 - - 10 - - - -
03/05:00pm 23.8 NNW 7 12 1016.4 - 0.0 - - 10 - - - -
03/04:30pm 24.1 N 7 12 1016.5 - 0.0 - Partly cloudy 10 - - - -
03/04:00pm 24.8 N 9 13 1016.7 - 0.0 - Partly cloudy 10 - - - -
03/03:30pm 24.6 NNW 7 13 1016.9 - 0.0 - Partly cloudy 10 - - - -
03/03:00pm 24.7 N 10 18 1017.0 R 0.0 Fine Mostly clear 20 - - - -
03/02:30pm 24.4 N 11 17 1017.0 - 0.0 - Partly cloudy 10 - - - -
03/02:00pm 24.5 N 11 16 1017.0 - 0.0 - Partly cloudy 10 - - - -
03/01:30pm 24.3 NNW 10 15 1017.1 - 0.0 - Partly cloudy 10 - - - -
03/01:00pm 24.5 NNW 9 13 1017.2 - 0.0 - - 10 - - - -
03/12:30pm 24.7 N 9 15 1017.4 - 0.0 - Partly cloudy 10 - - - -
03/12:27pm 24.3 N 9 15 1017.4 - 0.0 - Partly cloudy 10 - - - -
03/12:00pm 23.9 N 11 16 1017.7 - 0.0 - Cloudy 10 - - - -
03/11:57am 24.0 N 10 16 1017.7 - 0.0 - Partly cloudy 10 - - - -
03/11:30am 25.4 NNE 10 16 1017.3 - 0.0 - Partly cloudy 10 - - - -
03/11:10am 25.0 NNE 10 16 1017.5 - 0.0 - Partly cloudy 10 - - - -
03/11:00am 24.9 NNE 10 15 1017.6 - 0.0 - Partly cloudy 10 - - - -
03/10:30am 24.3 NE 12 15 1017.7 - 0.0 - Partly cloudy 10 - - - -
03/10:17am 24.3 NNE 12 15 1017.6 - 0.0 - Partly cloudy 10 - - - -
03/10:00am 24.6 NNE 11 14 1017.7 - 0.0 - Partly cloudy 10 - - - -
03/09:32am 24.5 NNE 11 13 1017.6 - 0.0 - Partly cloudy 10 - - - -
03/09:30am 24.8 NNE 10 12 1017.6 - 0.0 - Partly cloudy 10 - - - -
03/09:15am 24.6 N 6 12 1017.6 - 0.0 - Partly cloudy 10 - - - -
03/09:00am 23.9 N 8 13 1017.6 F 0.0 Fine Partly cloudy 20 - - - -
03/08:30am 23.4 N 7 10 1017.5 - 0.0 - Partly cloudy 10 - - - -
03/08:13am 23.5 NNW 7 9 1017.5 - 0.0 - Partly cloudy 10 - - - -
03/08:00am 23.5 N 5 9 1017.4 - 0.0 - Partly cloudy 10 - - - -
03/07:48am 23.7 N 6 9 1017.3 - 0.0 - Partly cloudy 10 - - - -
03/07:30am 22.5 N 5 13 1017.2 - 0.0 - Partly cloudy 10 - - - -
03/07:23am 23.0 N 5 11 1017.2 - 0.0 - Partly cloudy 10 - - - -
03/07:00am 22.5 N 5 9 1017.1 - 0.0 - Partly cloudy 10 - - - -
03/06:33am 22.2 NE 4 6 1016.7 - 0.0 - Partly cloudy 10 - - - -
03/06:30am 22.0 NNE 4 6 1016.7 - 0.0 - Partly cloudy 10 - - - -
03/06:27am 21.9 N 4 9 1016.7 - 0.0 - Partly cloudy 10 - - - -
03/06:00am 21.6 N 1 4 1016.7 R 0.0 Fine Partly cloudy 25 - - - -
03/05:45am 21.1 NE 2 6 1016.4 - 0.0 - Partly cloudy 10 - - - -
03/05:30am 21.1 NNE 3 6 1016.3 - 0.0 - Partly cloudy 10 - - - -
03/05:00am 21.2 N 5 10 1015.7 - 0.0 - - 10 - - - -
03/04:30am 21.2 N 6 10 1015.6 - 0.0 - - 10 - - - -
03/04:00am 21.0 N 5 9 1015.5 - 0.0 - Partly cloudy 10 - - - -
03/03:30am 20.9 N 5 7 1015.8 - 0.0 - - 10 - - - -
03/03:00am 21.2 N 5 8 1015.9 - 0.0 - - 10 - - - -
03/02:30am 21.2 NNE 5 9 1016.1 - 0.0 - Partly cloudy 10 - - - -
03/02:00am 21.5 N 6 11 1016.3 - 0.0 - Partly cloudy 10 - - - -
03/01:30am 21.3 N 7 9 1016.7 - 0.0 - Partly cloudy 10 - - - -
03/01:00am 21.5 N 7 12 1016.8 - 0.0 - - 10 - - - -
03/12:30am 21.4 NNE 7 14 1016.9 - 0.0 - - 10 - - - -
03/12:00am 21.4 NNE 8 13 1017.0 - 0.0 - - 10 - - - -
 
Date/Time
EDT
Temp
°C
Wind Pressure Rain since
9am
mm
Weather Cloud Vis
km
Sea
Height
m
Swell
Dir  Spd
kts
Gust
kts
hPa Trend Height
m
Period
s
Dir
02/11:30pm 21.5 NNE 7 13 1016.9 - 0.0 - - 10 - - - -
02/11:00pm 21.6 N 7 12 1017.3 - 0.0 - Partly cloudy 10 - - - -
02/10:30pm 21.6 N 7 12 1017.3 - 0.0 - - 10 - - - -
02/10:00pm 21.6 N 6 11 1017.2 - 0.0 - - 10 - - - -
02/09:30pm 21.6 NNE 6 13 1016.9 - 0.0 - - 10 - - - -
02/09:00pm 21.5 NNE 7 12 1016.7 - 0.0 - - 10 - - - -
02/08:30pm 21.6 NNE 6 9 1016.6 - 0.0 - - 10 - - - -
02/08:00pm 21.6 NNE 7 11 1016.1 - 0.0 - - 10 - - - -
02/07:30pm 21.7 NNE 8 10 1015.8 - 0.0 - - 10 - - - -
02/07:00pm 21.9 NNE 7 9 1015.6 - 0.0 - - 10 - - - -
02/06:30pm 22.3 NNE 8 10 1015.2 - 0.0 - - 10 - - - -
02/06:00pm 22.7 NNE 8 12 1015.1 - 0.0 - - 10 - - - -
02/05:30pm 22.9 NNE 10 13 1014.8 - 0.0 - - 10 - - - -
02/05:00pm 23.2 NNE 10 13 1014.6 - 0.0 - - 10 - - - -
02/04:30pm 23.7 NNE 11 15 1014.6 - 0.0 - - 10 - - - -
02/04:00pm 24.3 N 7 12 1014.9 - 0.0 - Mostly clear 10 - - - -
02/03:30pm 24.3 N 7 13 1015.0 - 0.0 - Mostly clear 10 - - - -
02/03:00pm 23.8 NNE 11 13 1014.9 - 0.0 - Mostly clear 10 - - - -
02/02:30pm 24.3 NNE 11 15 1015.2 - 0.0 - Mostly clear 10 - - - -
02/02:00pm 24.1 NNE 12 15 1015.1 - 0.0 - Mostly clear 10 - - - -
02/01:30pm 23.9 NNE 12 14 1015.2 - 0.0 - Mostly clear 10 - - - -
02/01:00pm 23.8 NNE 11 13 1015.2 - 0.0 - Mostly clear 10 - - - -
02/12:30pm 23.9 NNE 12 14 1015.4 - 0.0 - Mostly clear 10 - - - -
02/12:00pm 23.7 NNE 11 15 1015.6 - 0.0 - Mostly clear 10 - - - -
02/11:30am 23.8 NNE 11 16 1015.8 - 0.0 - Mostly clear 10 - - - -
02/11:00am 24.0 NNE 11 15 1015.8 - 0.0 - Mostly clear 10 - - - -
02/10:30am 23.6 NNE 11 13 1015.6 - 0.0 - Mostly clear 10 - - - -
02/10:00am 23.6 NNE 11 15 1015.4 - 0.0 - Mostly clear 10 - - - -
02/09:30am 23.9 NNE 11 15 1015.4 - 0.0 - Mostly clear 10 - - - -
02/09:00am 23.3 NNE 9 15 1015.4 - 0.0 - Mostly clear 10 - - - -
02/08:30am 23.5 NNE 7 12 1015.3 - 0.0 - Mostly clear 10 - - - -
02/08:00am 23.0 NE 10 14 1015.1 - 0.0 - Partly cloudy 10 - - - -
02/07:30am 22.4 N 6 10 1015.1 - 0.0 - Partly cloudy 10 - - - -
02/07:00am 22.8 NNE 6 10 1014.9 - 0.0 - - 10 - - - -
02/06:30am 21.8 N 4 6 1014.6 - 0.0 - - 10 - - - -
02/06:00am 21.1 NW 2 5 1014.7 - 0.0 - Partly cloudy 10 - - - -
02/05:30am 20.4 N 4 6 1014.7 - 0.0 - Partly cloudy 10 - - - -
02/05:00am 20.4 N 4 6 1014.4 - 0.0 - Partly cloudy 10 - - - -
02/04:30am 20.0 N 3 5 1014.1 - 0.0 - Partly cloudy 10 - - - -
02/04:00am 20.4 N 4 6 1013.9 - 0.0 - - 10 - - - -
02/03:30am 20.8 N 7 9 1013.8 - 0.0 - - 10 - - - -
02/03:00am 20.9 N 6 8 1013.6 - 0.0 - - 10 - - - -
02/02:30am 20.9 NNE 6 12 1013.5 - 0.0 - - 10 - - - -
02/02:00am 21.0 N 5 11 1013.7 - 0.0 - - 10 - - - -
02/01:30am 20.8 NE 7 12 1013.7 - 0.0 - - 10 - - - -
02/01:00am 20.9 NNE 5 8 1013.9 - 0.0 - Partly cloudy 10 - - - -
02/12:30am 21.1 NNE 8 11 1014.1 - 0.0 - Partly cloudy 10 - - - -
02/12:00am 21.0 NE 8 11 1014.1 - 0.0 - Partly cloudy 10 - - - -
 
Date/Time
EDT
Temp
°C
Wind Pressure Rain since
9am
mm
Weather Cloud Vis
km
Sea
Height
m
Swell
Dir  Spd
kts
Gust
kts
hPa Trend Height
m
Period
s
Dir
01/11:30pm 21.1 NNE 8 10 1014.2 - 0.0 - - 10 - - - -
01/11:00pm 21.0 NNE 8 10 1014.4 - 0.0 - - 10 - - - -
01/10:30pm 21.0 NE 8 11 1014.3 - 0.0 - - 10 - - - -
01/10:00pm 21.1 NNE 7 9 1014.6 - 0.0 - - 10 - - - -
01/09:30pm 21.0 NNE 6 8 1014.6 - 0.0 - - 10 - - - -
01/09:00pm 21.1 NNE 6 8 1014.4 - 0.0 - - 10 - - - -
01/08:30pm 21.4 NNE 7 10 1014.0 - 0.0 - - 10 - - - -
01/08:00pm 21.1 NE 6 8 1013.7 - 0.0 - - 10 - - - -
01/07:30pm 21.3 NNE 6 9 1013.5 - 0.0 - - 10 - - - -
01/07:00pm 21.7 N 6 8 1013.5 - 0.0 - - 10 - - - -
01/06:30pm 22.4 N 6 10 1013.3 - 0.0 - - 10 - - - -
01/06:00pm 23.1 N 6 10 1013.0 - 0.0 - Mostly clear 10 - - - -
01/05:30pm 24.0 NW 6 9 1013.0 - 0.0 - Partly cloudy 10 - - - -
01/05:00pm 23.6 WNW 6 9 1013.0 - 0.0 - Partly cloudy 10 - - - -
01/04:30pm 23.8 WNW 7 10 1013.0 - 0.0 - Partly cloudy 10 - - - -
01/04:00pm 24.8 W 8 11 1013.0 - 0.0 - Partly cloudy 10 - - - -
01/03:51pm 24.6 WNW 7 10 1013.0 - 0.0 - Partly cloudy 10 - - - -
01/03:30pm 25.0 W 7 10 1013.2 - 0.0 - Partly cloudy 10 - - - -
01/03:00pm 25.1 WNW 6 11 1013.3 - 0.0 - Cloudy 10 - - - -
01/02:30pm 23.4 N 7 12 1013.5 - 0.0 - Mostly clear 10 - - - -
01/02:00pm 23.7 NNW 7 11 1013.6 - 0.0 - Mostly clear 10 - - - -
01/01:30pm 23.0 NNW 7 11 1013.5 - 0.0 - Mostly clear 10 - - - -
01/01:00pm 23.1 N 5 9 1013.5 - 0.0 - Mostly clear 10 - - - -
01/12:30pm 22.8 W 7 10 1013.6 - 0.0 - Mostly clear 10 - - - -
01/12:00pm 23.0 WNW 6 9 1013.7 - 0.0 - Cloudy 10 - - - -
01/11:30am 23.4 W 7 10 1013.6 - 0.0 - Mostly clear 10 - - - -
01/11:00am 22.8 W 5 7 1013.6 - 0.0 - Mostly clear 10 - - - -
01/10:30am 22.8 W 6 9 1013.6 - 0.0 - Mostly clear 10 - - - -
01/10:00am 23.7 WNW 7 12 1013.5 - 0.0 - Mostly clear 10 - - - -
01/09:30am 23.0 WNW 6 11 1013.4 - 0.0 - Mostly clear 10 - - - -
01/09:00am 23.2 N 6 10 1013.4 - 0.0 - Mostly clear 10 - - - -
01/08:30am 23.3 N 6 8 1013.2 - 0.0 - Mostly clear 10 - - - -
01/08:00am 22.3 WNW 5 7 1013.3 - 0.0 - Mostly clear 10 - - - -
01/07:30am 22.5 NNW 3 7 1013.2 - 0.0 - Partly cloudy 10 - - - -
01/07:00am 21.7 NW 3 5 1013.1 - 0.0 - Partly cloudy 10 - - - -
01/06:30am 20.4 CALM 0 0 1013.1 - 0.0 - - 10 - - - -
01/06:00am 18.5 CALM 0 0 1013.1 - 0.0 - - 10 - - - -
01/05:30am 17.9 CALM 0 0 1013.1 - 0.0 - - 10 - - - -
01/05:00am 17.7 CALM 0 0 1012.8 - 0.0 - - 10 - - - -
01/04:30am 17.5 CALM 0 0 1012.6 - 0.0 - - 10 - - - -
01/04:00am 19.2 N 3 6 1012.4 - 0.0 - - 10 - - - -
01/03:30am 20.2 N 4 6 1012.4 - 0.0 - - 10 - - - -
01/03:00am 19.9 N 5 7 1012.6 - 0.0 - - 10 - - - -
01/02:30am 17.5 N 4 6 1012.5 - 0.0 - - 10 - - - -
01/02:00am 17.2 CALM 0 0 1012.8 - 0.0 - - 10 - - - -
01/01:30am 17.3 CALM 0 0 1013.3 - 0.0 - - 10 - - - -
01/01:00am 17.4 ENE 3 4 1013.5 - 0.0 - - 10 - - - -
01/12:30am 17.1 NE 2 4 1013.7 - 0.0 - - 10 - - - -
01/12:00am 17.5 CALM 0 0 1013.9 - 0.0 - - 10 - - - -
 
Date/Time
EDT
Temp
°C
Wind Pressure Rain since
9am
mm
Weather Cloud Vis
km
Sea
Height
m
Swell
Dir  Spd
kts
Gust
kts
hPa Trend Height
m
Period
s
Dir
30/11:30pm 18.0 CALM 0 0 1014.1 - 0.0 - - 10 - - - -
30/11:00pm 18.4 ENE 3 4 1014.0 - 0.0 - - 10 - - - -

Other Formats:

Comma delimited format used in spreadsheet applications
http://www.bom.gov.au/fwo/IDN60701/IDN60701.94995.axf

JavaScript Object Notation format (JSON) in row-major order
http://www.bom.gov.au/fwo/IDN60701/IDN60701.94995.json